Regional Weather Roundup
Issued by NWS State College, PA

Home | Current Version | Previous Version | Text Only | Print | Product List | Glossary On
Versions: 1 2 3 4 5 6 7 8 9 10 11 12 13 14 15 16 17 18 19 20 21 22 23 24 25 26 27 28 29 30 31 32 33 34 35 36 37 38 39 40 41 42 43 44 45 46 47 48 49 50
000
ASUS41 KCTP 241710
RWRCTP

REGIONAL WEATHER ROUNDUP
NATIONAL WEATHER SERVICE STATE COLLEGE PA
100 PM EDT FRI OCT 24 2014

Note: "fair" indicates few or no clouds below 12,000 feet with no
significant weather and/or obstructions to visibility.

* = STATION THAT DOES NOT REPORT PRECIPITATION /E.G. RAIN...SNOW...ETC/
    THUNDER OR FOG.

PAZ002>004-007>009-013>016-020>023-029>032-241800-
WESTERN PENNSYLVANIA

CITY           SKY/WX    TMP DP  RH WIND       PRES   REMARKS
ERIE           PTSUNNY   56  45  66 W7        30.05F
MEADVILLE      PTSUNNY   54  44  69 W9        30.05F
FRANKLIN*      MOSUNNY   54  43  66 W9        30.06F
NEW CASTLE       N/A     57  41  55 VRB3      30.07F
BEAVER COUNTY  SUNNY     57  39  51 W7        30.06F
BUTLER*        MOSUNNY   54  43  66 NW3       30.08F
PITTSBURGH INT PTSUNNY   55  41  59 NW3       30.06F
PITTSBURGH     MOSUNNY   54  39  57 SW7       30.06F
INDIANA*       MOSUNNY   52  41  66 W10       30.08F
LATROBE        PTSUNNY  N/A N/A N/A NW7       30.09F
WASHINGTON CO* SUNNY     55  41  58 SW6       30.09F
$$

PAZ004>006-010>012-017>019-024>028-033>037-041-042-045-046-049>053-241800-
CENTRAL PENNSYLVANIA

CITY           SKY/WX    TMP DP  RH WIND       PRES   REMARKS
BRADFORD       MOSUNNY   53  30  41 W13G21    30.00F
DUBOIS         SUNNY     53  41  63 W7        30.01F
CLEARFIELD     SUNNY     56  36  47 W9        30.01F
JOHNSTOWN      MOSUNNY   51  36  56 W13       30.03F
ALTOONA        SUNNY     57  39  51 NW10      30.01F
STATE COLLEGE  SUNNY     59  34  38 NW12      29.97F
WILLIAMSPORT   SUNNY     67  40  37 W9G17     29.90F
SELINSGROVE    SUNNY     66  41  40 N10G17    29.91F
FT INDIANTOWN  SUNNY     65  43  44 NW10G26   29.89F
CAPITAL CITY   SUNNY     66  38  35 N10G21    29.91F
HARRISBURG     SUNNY     65  39  38 W12       29.90F
YORK           SUNNY     65  36  34 W16G23    29.92F
$$

PAZ038>040-043-044-047-048-054-055-060>062-067>071-241800-
EASTERN PENNSYLVANIA

CITY           SKY/WX    TMP DP  RH WIND       PRES   REMARKS
SCRANTON       MOSUNNY   63  42  46 NW18G28   29.87F
MOUNT POCONO   SUNNY     56  41  57 NW18G30   29.84F
ALLENTOWN      SUNNY     65  42  43 NW20G26   29.84F
QUAKERTOWN*    SUNNY     64  43  45 N10G21    29.85F
READING        LGT RAIN  66  44  45 NW16G24   29.87F
LANCASTER      SUNNY     64  43  46 NW16      29.89F
COATESVILLE    SUNNY     63  45  51 NW20G25   29.88F
POTTSTOWN      SUNNY     64  43  46 NW13G23   29.86F
BLUE BELL      SUNNY     66  45  45 N5        29.84F
DOYLESTOWN     MOSUNNY   64  44  48 NW16G25   29.82F
WILLOW GROVE   NOT AVBL
NORTH PHILA    SUNNY     67  42  40 NW15G23   29.85F
PHILADELPHIA   MOSUNNY   66  43  43 NW20      29.84F
$$



USA.gov is the U.S. government's official web portal to all federal, state and local government web resources and services.